Time,TemperatureF,DewpointF,PressureIn,WindDirection,WindDirectionDegrees,WindSpeedMPH,WindSpeedGustMPH,Humidity,HourlyPrecipIn,Conditions,Clouds,dailyrainin,SoftwareType,DateUTC
2013-09-29 00:09:00,65.1,55.1,30.06,East,90,1.7,-999.0,70,-99.99,,,0.00,Acu-Link.com,2013-09-29 04:09:00,
2013-09-29 00:24:00,64.9,55.3,30.06,ESE,112,0.0,-999.0,71,-99.99,,,0.00,Acu-Link.com,2013-09-29 04:24:00,
2013-09-29 00:39:00,64.8,55.6,30.05,East,90,0.0,-999.0,72,-99.99,,,0.00,Acu-Link.com,2013-09-29 04:39:00,
2013-09-29 00:55:00,64.6,55.7,30.06,East,90,0.0,-999.0,73,-99.99,,,0.00,Acu-Link.com,2013-09-29 04:55:00,
2013-09-29 01:10:00,64.2,56.1,30.06,ESE,112,0.0,-999.0,75,-99.99,,,0.00,Acu-Link.com,2013-09-29 05:10:00,
2013-09-29 01:25:00,63.9,56.2,30.06,East,90,2.2,-999.0,76,-99.99,,,0.00,Acu-Link.com,2013-09-29 05:25:00,
2013-09-29 01:40:00,63.9,56.2,30.05,ESE,112,0.0,-999.0,76,-99.99,,,0.00,Acu-Link.com,2013-09-29 05:40:00,
2013-09-29 01:56:00,63.3,56.0,30.05,South,180,0.0,-999.0,77,-99.99,,,0.00,Acu-Link.com,2013-09-29 05:56:00,
2013-09-29 02:11:00,63.3,57.0,30.05,South,180,1.1,-999.0,80,-99.99,,,0.00,Acu-Link.com,2013-09-29 06:11:00,
2013-09-29 02:26:00,63.3,57.0,30.04,East,90,0.0,-999.0,80,-99.99,,,0.00,Acu-Link.com,2013-09-29 06:26:00,
2013-09-29 02:42:00,63.0,57.1,30.04,WSW,247,0.0,-999.0,81,-99.99,,,0.00,Acu-Link.com,2013-09-29 06:42:00,
2013-09-29 02:57:00,62.6,56.7,30.03,SSE,157,0.0,-999.0,81,-99.99,,,0.00,Acu-Link.com,2013-09-29 06:57:00,
2013-09-29 03:12:00,62.4,57.2,30.03,SSW,202,0.0,-999.0,83,-99.99,,,0.00,Acu-Link.com,2013-09-29 07:12:00,
2013-09-29 03:27:00,62.4,57.2,30.02,East,90,0.0,-999.0,83,-99.99,,,0.00,Acu-Link.com,2013-09-29 07:27:00,
2013-09-29 03:42:00,62.1,56.9,30.01,ESE,112,0.0,-999.0,83,-99.99,,,0.00,Acu-Link.com,2013-09-29 07:42:00,
2013-09-29 03:58:00,61.9,57.0,30.01,ESE,112,0.0,-999.0,84,-99.99,,,0.00,Acu-Link.com,2013-09-29 07:58:00,
2013-09-29 04:13:00,61.5,57.3,30.01,SE,135,0.0,-999.0,86,-99.99,,,0.00,Acu-Link.com,2013-09-29 08:13:00,
2013-09-29 04:28:00,61.2,57.9,30.00,ESE,112,0.0,-999.0,89,-99.99,,,0.00,Acu-Link.com,2013-09-29 08:28:00,
2013-09-29 04:44:00,61.2,58.2,30.01,ESE,112,0.0,-999.0,90,-99.99,,,0.00,Acu-Link.com,2013-09-29 08:44:00,
2013-09-29 04:59:00,61.0,58.0,30.01,East,90,0.0,-999.0,90,-99.99,,,0.00,Acu-Link.com,2013-09-29 08:59:00,
2013-09-29 05:15:00,61.0,58.0,30.01,East,90,0.0,-999.0,90,-99.99,,,0.00,Acu-Link.com,2013-09-29 09:15:00,
2013-09-29 05:46:00,60.8,57.5,30.00,North,0,0.0,-999.0,89,-99.99,,,0.00,Acu-Link.com,2013-09-29 09:46:00,
2013-09-29 06:03:00,60.6,57.3,30.00,East,90,1.7,-999.0,89,-99.99,,,0.00,Acu-Link.com,2013-09-29 10:03:00,
2013-09-29 06:18:00,60.4,56.8,30.00,East,90,0.0,-999.0,88,-99.99,,,0.00,Acu-Link.com,2013-09-29 10:18:00,
2013-09-29 06:33:00,60.8,56.6,30.00,ESE,112,0.0,-999.0,86,-99.99,,,0.00,Acu-Link.com,2013-09-29 10:33:00,
2013-09-29 06:48:00,60.8,56.6,30.00,ESE,112,0.0,-999.0,86,-99.99,,,0.00,Acu-Link.com,2013-09-29 10:48:00,
2013-09-29 07:03:00,60.6,56.4,30.00,East,90,0.0,-999.0,86,-99.99,,,0.00,Acu-Link.com,2013-09-29 11:03:00,
2013-09-29 07:19:00,60.4,56.2,30.00,East,90,0.0,-999.0,86,-99.99,,,0.00,Acu-Link.com,2013-09-29 11:19:00,
2013-09-29 07:35:00,60.4,56.5,30.00,East,90,0.0,-999.0,87,-99.99,,,0.00,Acu-Link.com,2013-09-29 11:35:00,
2013-09-29 07:50:00,60.4,56.5,30.00,East,90,0.0,-999.0,87,-99.99,,,0.00,Acu-Link.com,2013-09-29 11:50:00,
2013-09-29 08:05:00,60.4,56.5,30.00,ESE,112,0.0,-999.0,87,-99.99,,,0.00,Acu-Link.com,2013-09-29 12:05:00,
2013-09-29 08:21:00,60.3,56.7,30.01,ESE,112,0.0,-999.0,88,-99.99,,,0.00,Acu-Link.com,2013-09-29 12:21:00,
2013-09-29 08:36:00,60.4,56.8,30.01,East,90,0.0,-999.0,88,-99.99,,,0.00,Acu-Link.com,2013-09-29 12:36:00,
2013-09-29 08:51:00,62.2,58.3,30.02,West,270,0.0,-999.0,87,-99.99,,,0.00,Acu-Link.com,2013-09-29 12:51:00,
2013-09-29 09:06:00,62.8,58.2,30.02,East,90,1.7,-999.0,85,-99.99,,,0.00,Acu-Link.com,2013-09-29 13:06:00,
2013-09-29 09:21:00,63.3,58.7,30.02,ESE,112,0.0,-999.0,85,-99.99,,,0.00,Acu-Link.com,2013-09-29 13:21:00,
2013-09-29 09:37:00,64.2,58.9,30.03,East,90,3.2,-999.0,83,-99.99,,,0.00,Acu-Link.com,2013-09-29 13:37:00,
2013-09-29 09:52:00,63.9,58.6,30.02,ESE,112,2.2,-999.0,83,-99.99,,,0.00,Acu-Link.com,2013-09-29 13:52:00,
2013-09-29 10:07:00,65.8,58.7,30.02,East,90,0.0,-999.0,78,-99.99,,,0.00,Acu-Link.com,2013-09-29 14:07:00,
2013-09-29 10:23:00,65.3,58.6,30.02,ESE,112,0.0,-999.0,79,-99.99,,,0.00,Acu-Link.com,2013-09-29 14:23:00,
2013-09-29 10:38:00,65.7,58.6,30.02,ENE,67,0.0,-999.0,78,-99.99,,,0.00,Acu-Link.com,2013-09-29 14:38:00,
2013-09-29 10:53:00,65.5,58.1,30.01,East,90,2.2,-999.0,77,-99.99,,,0.00,Acu-Link.com,2013-09-29 14:53:00,
2013-09-29 11:09:00,66.7,58.5,30.01,ESE,112,0.0,-999.0,75,-99.99,,,0.00,Acu-Link.com,2013-09-29 15:09:00,
2013-09-29 11:24:00,66.6,58.0,30.01,South,180,0.0,-999.0,74,-99.99,,,0.00,Acu-Link.com,2013-09-29 15:24:00,
2013-09-29 11:39:00,67.5,57.8,30.00,ESE,112,2.7,-999.0,71,-99.99,,,0.00,Acu-Link.com,2013-09-29 15:39:00,
2013-09-29 11:54:00,68.4,57.4,29.99,East,90,2.2,-999.0,68,-99.99,,,0.00,Acu-Link.com,2013-09-29 15:54:00,
2013-09-29 12:10:00,68.0,57.0,29.99,SE,135,0.0,-999.0,68,-99.99,,,0.00,Acu-Link.com,2013-09-29 16:10:00,
2013-09-29 12:25:00,68.5,57.1,29.99,ENE,67,0.0,-999.0,67,-99.99,,,0.00,Acu-Link.com,2013-09-29 16:25:00,
2013-09-29 12:40:00,69.8,57.5,29.99,ESE,112,3.7,-999.0,65,-99.99,,,0.00,Acu-Link.com,2013-09-29 16:40:00,
2013-09-29 12:55:00,68.2,56.4,29.98,East,90,2.7,-999.0,66,-99.99,,,0.00,Acu-Link.com,2013-09-29 16:55:00,
2013-09-29 13:11:00,68.7,56.5,29.98,ESE,112,2.2,-999.0,65,-99.99,,,0.00,Acu-Link.com,2013-09-29 17:11:00,
2013-09-29 13:26:00,70.2,55.7,29.98,ESE,112,2.7,-999.0,60,-99.99,,,0.00,Acu-Link.com,2013-09-29 17:26:00,
2013-09-29 13:41:00,71.2,55.7,29.97,ESE,112,0.0,-999.0,58,-99.99,,,0.00,Acu-Link.com,2013-09-29 17:41:00,
2013-09-29 13:57:00,71.4,54.4,29.96,East,90,2.2,-999.0,55,-99.99,,,0.00,Acu-Link.com,2013-09-29 17:57:00,
2013-09-29 14:12:00,71.2,54.7,29.95,South,180,0.0,-999.0,56,-99.99,,,0.00,Acu-Link.com,2013-09-29 18:12:00,
2013-09-29 14:27:00,73.6,55.4,29.95,ESE,112,1.7,-999.0,53,-99.99,,,0.00,Acu-Link.com,2013-09-29 18:27:00,
2013-09-29 14:42:00,71.1,54.6,29.95,ESE,112,1.1,-999.0,56,-99.99,,,0.00,Acu-Link.com,2013-09-29 18:42:00,
2013-09-29 14:58:00,70.9,54.4,29.94,ESE,112,0.0,-999.0,56,-99.99,,,0.00,Acu-Link.com,2013-09-29 18:58:00,
2013-09-29 15:13:00,71.1,54.1,29.94,East,90,2.7,-999.0,55,-99.99,,,0.00,Acu-Link.com,2013-09-29 19:13:00,
2013-09-29 15:28:00,71.8,54.2,29.93,East,90,2.7,-999.0,54,-99.99,,,0.00,Acu-Link.com,2013-09-29 19:28:00,
2013-09-29 15:44:00,71.4,54.4,29.93,ESE,112,2.2,-999.0,55,-99.99,,,0.00,Acu-Link.com,2013-09-29 19:44:00,
2013-09-29 15:59:00,72.1,54.5,29.92,ESE,112,0.0,-999.0,54,-99.99,,,0.00,Acu-Link.com,2013-09-29 19:59:00,
2013-09-29 16:14:00,71.4,54.4,29.91,East,90,0.0,-999.0,55,-99.99,,,0.00,Acu-Link.com,2013-09-29 20:14:00,
2013-09-29 16:30:00,71.1,54.6,29.91,East,90,1.7,-999.0,56,-99.99,,,0.00,Acu-Link.com,2013-09-29 20:30:00,
2013-09-29 16:45:00,69.8,54.3,29.91,ESE,112,0.0,-999.0,58,-99.99,,,0.00,Acu-Link.com,2013-09-29 20:45:00,
2013-09-29 17:00:00,70.2,54.2,29.91,East,90,2.2,-999.0,57,-99.99,,,0.00,Acu-Link.com,2013-09-29 21:00:00,
2013-09-29 17:15:00,70.2,54.2,29.91,ESE,112,0.0,-999.0,57,-99.99,,,0.00,Acu-Link.com,2013-09-29 21:15:00,
2013-09-29 17:30:00,70.0,54.1,29.91,ENE,67,0.0,-999.0,57,-99.99,,,0.00,Acu-Link.com,2013-09-29 21:30:00,
2013-09-29 17:45:00,69.6,53.7,29.90,ESE,112,2.2,-999.0,57,-99.99,,,0.00,Acu-Link.com,2013-09-29 21:45:00,
2013-09-29 18:00:00,69.3,53.4,29.90,East,90,4.2,-999.0,57,-99.99,,,0.00,Acu-Link.com,2013-09-29 22:00:00,
2013-09-29 18:16:00,68.7,55.1,29.91,ESE,112,2.2,-999.0,62,-99.99,,,0.00,Acu-Link.com,2013-09-29 22:16:00,
2013-09-29 18:31:00,68.2,55.1,29.91,North,0,1.7,-999.0,63,-99.99,,,0.00,Acu-Link.com,2013-09-29 22:31:00,
2013-09-29 18:46:00,66.9,54.7,29.92,SSE,157,0.0,-999.0,65,-99.99,,,0.00,Acu-Link.com,2013-09-29 22:46:00,
2013-09-29 19:01:00,65.3,54.9,29.92,NNE,22,2.2,-999.0,69,-99.99,,,0.00,Acu-Link.com,2013-09-29 23:01:00,
2013-09-29 19:17:00,64.8,54.4,29.92,SW,225,0.0,-999.0,69,-99.99,,,0.00,Acu-Link.com,2013-09-29 23:17:00,
2013-09-29 19:32:00,64.6,54.6,29.92,West,270,1.7,-999.0,70,-99.99,,,0.00,Acu-Link.com,2013-09-29 23:32:00,
2013-09-29 19:47:00,64.2,55.0,29.92,East,90,1.1,-999.0,72,-99.99,,,0.00,Acu-Link.com,2013-09-29 23:47:00,
2013-09-29 20:02:00,64.2,55.0,29.93,East,90,0.0,-999.0,72,-99.99,,,0.00,Acu-Link.com,2013-09-30 00:02:00,
2013-09-29 20:18:00,63.9,55.1,29.93,ESE,112,0.0,-999.0,73,-99.99,,,0.00,Acu-Link.com,2013-09-30 00:18:00,
2013-09-29 20:33:00,63.7,55.3,29.93,ESE,112,1.7,-999.0,74,-99.99,,,0.00,Acu-Link.com,2013-09-30 00:33:00,
2013-09-29 20:48:00,63.3,55.2,29.93,East,90,1.7,-999.0,75,-99.99,,,0.00,Acu-Link.com,2013-09-30 00:48:00,
2013-09-29 21:03:00,63.3,55.6,29.92,ENE,67,0.0,-999.0,76,-99.99,,,0.00,Acu-Link.com,2013-09-30 01:03:00,
2013-09-29 21:19:00,63.0,55.7,29.92,East,90,1.7,-999.0,77,-99.99,,,0.00,Acu-Link.com,2013-09-30 01:19:00,
2013-09-29 21:34:00,63.0,55.7,29.91,East,90,1.7,-999.0,77,-99.99,,,0.00,Acu-Link.com,2013-09-30 01:34:00,
2013-09-29 21:49:00,63.0,54.9,29.91,ESE,112,1.7,-999.0,75,-99.99,,,0.00,Acu-Link.com,2013-09-30 01:49:00,
2013-09-29 22:04:00,63.0,54.9,29.91,East,90,0.0,-999.0,75,-99.99,,,0.00,Acu-Link.com,2013-09-30 02:04:00,
2013-09-29 22:20:00,62.8,54.4,29.92,East,90,0.0,-999.0,74,-99.99,,,0.00,Acu-Link.com,2013-09-30 02:20:00,
2013-09-29 22:35:00,62.6,53.4,29.91,ESE,112,0.0,-999.0,72,-99.99,,,0.00,Acu-Link.com,2013-09-30 02:35:00,
2013-09-29 22:50:00,62.4,54.0,29.91,West,270,0.0,-999.0,74,-99.99,,,0.00,Acu-Link.com,2013-09-30 02:50:00,
2013-09-29 23:05:00,62.4,54.4,29.91,East,90,0.0,-999.0,75,-99.99,,,0.00,Acu-Link.com,2013-09-30 03:05:00,
2013-09-29 23:21:00,62.2,53.1,29.91,ESE,112,0.0,-999.0,72,-99.99,,,0.00,Acu-Link.com,2013-09-30 03:21:00,
2013-09-29 23:36:00,62.2,53.1,29.90,East,90,0.0,-999.0,72,-99.99,,,0.00,Acu-Link.com,2013-09-30 03:36:00,
2013-09-29 23:51:00,61.9,53.5,29.90,East,90,0.0,-999.0,74,-99.99,,,0.00,Acu-Link.com,2013-09-30 03:51:00,